Location: Biharia
(46.4333°N, 22.8000°E)
Time: 23:28:44
(UTC+00:00)

FENGYUN 1C DEB - Visible Passes

Search period start: 10 August 2022 00:00
Search period end: 20 August 2022 00:00
Orbit: 801 x 912 km, 98.9° (Epoch: 08 August)

Date Brightness Start Highest point End Pass type
(mag) Time Alt. Az. Time Alt. Az. Time Alt. Az.
10 Aug ? 01:03:18 10° NNW 01:06:59 18° NW 01:09:16 14° W visible
10 Aug ? 23:11:10 10° NNE 23:16:43 66° ESE 23:16:47 66° ESE visible
11 Aug ? 00:52:53 10° N 00:56:58 22° WNW 00:58:54 18° W visible
11 Aug ? 23:01:04 10° NNE 23:06:24 54° E 23:06:24 54° E visible
12 Aug ? 00:42:31 10° N 00:46:57 25° WNW 00:48:31 22° W visible
12 Aug ? 22:51:00 10° NNE 22:56:01 44° E 22:56:01 44° E visible
13 Aug ? 00:32:10 10° N 00:36:54 30° WNW 00:38:08 27° W visible
13 Aug ? 22:40:59 10° NNE 22:45:37 36° E 22:45:37 36° E visible
14 Aug ? 00:21:51 10° N 00:26:49 35° WNW 00:27:44 33° W visible
14 Aug ? 22:31:00 10° NNE 22:35:14 30° E 22:35:14 30° E visible
15 Aug ? 00:11:35 10° N 00:16:44 42° WNW 00:17:20 40° W visible
15 Aug ? 22:21:04 10° NE 22:24:49 24° E 22:24:49 24° E visible
16 Aug ? 00:01:19 10° N 00:06:37 50° WNW 00:06:56 49° W visible
16 Aug ? 22:11:12 10° NE 22:14:25 20° ENE 22:14:25 20° ENE visible
16 Aug ? 23:51:04 10° N 23:56:29 60° WNW 23:56:32 60° WNW visible
17 Aug ? 01:34:48 10° NW 01:36:08 11° NW 01:37:27 10° WNW visible
17 Aug ? 22:01:28 10° NE 22:04:00 16° ENE 22:04:00 16° ENE visible
17 Aug ? 23:40:51 10° N 23:46:07 72° NW 23:46:07 72° NW visible
18 Aug ? 01:23:46 10° NNW 01:26:08 13° NW 01:28:13 11° WNW visible
18 Aug ? 21:51:56 10° ENE 21:53:34 13° ENE 21:53:34 13° ENE visible
18 Aug ? 23:30:39 10° NNE 23:35:41 76° N 23:35:41 76° N visible
19 Aug ? 01:13:04 10° NNW 01:16:07 15° NW 01:17:48 13° WNW visible
19 Aug ? 21:42:59 10° ENE 21:43:09 10° ENE 21:43:09 10° ENE visible
19 Aug ? 23:20:28 10° NNE 23:25:16 67° NE 23:25:16 67° NE visible
